Dades meteomassalio
Diari Summary for Marc 25, 2017 Units:  English    Metric   Both
« Previous Day
Next Day »
Diari Semanal Mensual Anual Personalitzat
  Maxima: Minima: Mijana:
Temperatura: TemperatureC °F 5.7 °F 9.1 °F
Rosada: DewpointC °F 1.8 °F 4.6 °F
Humitat: Humidity % 50 % 75 %
Velocitat del vent: WindSpeedKMH mph 0.0 mph 5.8 mph
Racha vent: WindSpeedGustKMH mph - -
Vent:- - SE
Pressio: PressurehPa in 1011.1 in -
Pluja: 1.0 in    
Historical Graphs
 
 
Tabular Data for Marc 25, 2017
Time Temperature Dew Point Pressure Wind Wind Speed Wind Gust Humidity Rainfall Rate (Hourly) solar Conditions
TemperatureC °F DewpointC °F PressurehPa in Calm     Humidity % HourlyPrecipMM in SolarRadiationWatts/m^2 W/m2 Conditions
00:01 7.3 °F 4.3 °F 1014.4 in Calm     81 % 0.0 in 0.0 W/m2 RA
00:06 7.2 °F 4.3 °F 1014.4 in Calm     82 % 0.0 in 0.0 W/m2 CLR
00:11 7.1 °F 4.6 °F 1014.4 in Calm     84 % 0.0 in 0.0 W/m2 CLR
00:16 7.0 °F 4.7 °F 1014.4 in Calm     85 % 0.0 in 0.0 W/m2 CLR
00:21 6.9 °F 4.7 °F 1014.4 in Calm     86 % 0.0 in 0.0 W/m2 CLR
00:26 6.8 °F 4.6 °F 1014.4 in Calm     86 % 0.0 in 0.0 W/m2 CLR
00:31 6.7 °F 4.7 °F 1014.4 in Calm     87 % 0.0 in 0.0 W/m2 CLR
00:36 6.6 °F 4.6 °F 1014.4 in NNE 1.6 mph 1.6 mph 87 % 0.0 in 0.0 W/m2 RA
00:41 6.6 °F 4.7 °F 1014.1 in ENE 5.6 mph 5.6 mph 88 % 0.0 in 0.0 W/m2
00:46 6.5 °F 4.8 °F 1014.1 in Calm     89 % 0.0 in 0.0 W/m2 CLR
00:51 6.4 °F 4.8 °F 1014.1 in Calm     89 % 0.3 in 0.0 W/m2 RA
00:56 6.4 °F 4.7 °F 1014.1 in Calm     89 % 0.3 in 0.0 W/m2 CLR
01:01 6.3 °F 4.8 °F 1014.1 in Calm     90 % 0.5 in 0.0 W/m2 CLR
01:06 6.3 °F 4.8 °F 1014.1 in Calm     90 % 0.5 in 0.0 W/m2 CLR
01:07 6.3 °F 4.8 °F 1014.1 in Calm     90 % 0.5 in 0.0 W/m2 CLR
01:12 6.3 °F 4.8 °F 1014.1 in Calm     90 % 0.5 in 0.0 W/m2 RA
01:18 6.3 °F 4.8 °F 1014.1 in Calm     90 % 0.5 in 0.0 W/m2
01:23 6.3 °F 4.8 °F 1014.1 in Calm     90 % 0.8 in 0.0 W/m2 RA
01:28 6.3 °F 4.8 °F 1014.1 in Calm     90 % 0.8 in 0.0 W/m2 CLR
01:33 6.3 °F 4.8 °F 1013.8 in Calm     90 % 1.0 in 0.0 W/m2 RA
01:38 6.3 °F 4.8 °F 1014.1 in SW 5.6 mph 5.6 mph 90 % 0.8 in 0.0 W/m2 CLR
01:43 6.3 °F 4.9 °F 1013.8 in Calm     91 % 0.8 in 0.0 W/m2 CLR
01:48 6.2 °F 4.9 °F 1013.4 in Calm     91 % 0.5 in 0.0 W/m2 CLR
01:53 6.2 °F 4.9 °F 1013.4 in Calm     91 % 0.5 in 0.0 W/m2 CLR
01:58 6.2 °F 4.9 °F 1013.4 in Calm     91 % 0.5 in 0.0 W/m2 CLR
02:03 6.3 °F 4.9 °F 1013.4 in Calm     91 % 0.5 in 0.0 W/m2 CLR
02:08 6.2 °F 4.9 °F 1013.4 in Calm     91 % 0.5 in 0.0 W/m2 CLR
02:13 6.2 °F 4.8 °F 1013.4 in Calm     91 % 0.5 in 0.0 W/m2 CLR
02:18 6.2 °F 4.9 °F 1013.1 in Calm     92 % 0.5 in 0.0 W/m2 CLR
02:23 6.2 °F 4.9 °F 1013.1 in Calm     92 % 0.3 in 0.0 W/m2 CLR
02:28 6.2 °F 4.8 °F 1013.1 in SSW 5.6 mph 5.6 mph 91 % 0.3 in 0.0 W/m2 CLR
02:33 6.1 °F 4.8 °F 1013.1 in Calm     91 % 0.0 in 0.0 W/m2 CLR
02:38 6.1 °F 4.9 °F 1013.1 in Calm     92 % 0.0 in 0.0 W/m2 CLR
02:43 6.1 °F 4.9 °F 1013.1 in Calm     92 % 0.0 in 0.0 W/m2 CLR
02:48 6.1 °F 4.8 °F 1013.1 in SW 1.9 mph   91 % 0.0 in 0.0 W/m2 CLR
02:53 6.1 °F 4.8 °F 1013.1 in Calm     91 % 0.0 in 0.0 W/m2 CLR
02:58 6.1 °F 4.7 °F 1012.8 in West 1.6 mph   91 % 0.0 in 0.0 W/m2 CLR
03:03 6.1 °F 4.7 °F 1012.4 in Calm     91 % 0.0 in 0.0 W/m2 CLR
03:08 6.1 °F 4.7 °F 1012.4 in Calm     91 % 0.0 in 0.0 W/m2 CLR
03:13 6.1 °F 4.7 °F 1012.4 in Calm     91 % 0.0 in 0.0 W/m2 CLR
03:18 6.0 °F 4.7 °F 1012.4 in Calm     91 % 0.0 in 0.0 W/m2 CLR
03:23 6.0 °F 4.7 °F 1012.1 in Calm     91 % 0.0 in 0.0 W/m2 CLR
03:28 6.0 °F 4.7 °F 1012.1 in Calm     91 % 0.0 in 0.0 W/m2 CLR
03:33 6.0 °F 4.7 °F 1011.7 in Calm     91 % 0.0 in 0.0 W/m2 CLR
03:38 5.9 °F 4.6 °F 1011.4 in Calm     91 % 0.0 in 0.0 W/m2 CLR
03:43 5.9 °F 4.6 °F 1011.4 in Calm     91 % 0.0 in 0.0 W/m2 CLR
03:48 5.9 °F 4.6 °F 1011.4 in Calm     91 % 0.0 in 0.0 W/m2 CLR
03:53 6.0 °F 4.8 °F 1011.4 in Calm     92 % 0.0 in 0.0 W/m2 CLR
03:58 6.0 °F 4.8 °F 1011.4 in Calm     92 % 0.0 in 0.0 W/m2 CLR
04:03 6.0 °F 4.8 °F 1011.1 in Calm     92 % 0.0 in 0.0 W/m2 CLR
04:08 6.0 °F 4.8 °F 1011.1 in Calm     92 % 0.0 in 0.0 W/m2 CLR
04:13 5.9 °F 4.7 °F 1011.1 in Calm     92 % 0.0 in 0.0 W/m2 CLR
04:18 5.9 °F 4.7 °F 1011.1 in Calm     92 % 0.0 in 0.0 W/m2 CLR
04:23 5.9 °F 4.7 °F 1011.1 in Calm     92 % 0.0 in 0.0 W/m2 CLR
04:28 5.8 °F 4.6 °F 1011.4 in Calm     92 % 0.0 in 0.0 W/m2 CLR
04:33 5.8 °F 4.6 °F 1011.4 in Calm     92 % 0.0 in 0.0 W/m2 CLR
04:38 5.8 °F 4.6 °F 1011.4 in Calm     92 % 0.0 in 0.0 W/m2 CLR
04:43 5.7 °F 4.5 °F 1011.7 in ENE 3.7 mph   92 % 0.0 in 0.0 W/m2 CLR
04:48 5.7 °F 4.5 °F 1011.7 in East 3.7 mph 3.7 mph 92 % 0.0 in 0.0 W/m2 CLR
04:53 5.7 °F 4.5 °F 1011.7 in Calm     92 % 0.0 in 0.0 W/m2 CLR
04:59 5.7 °F 4.5 °F 1011.7 in Calm     92 % 0.0 in 0.0 W/m2 CLR
05:09 5.7 °F 4.4 °F 1011.7 in Calm     92 % 0.0 in 0.0 W/m2 CLR
05:14 5.7 °F 4.5 °F 1012.1 in Calm     92 % 0.0 in 0.0 W/m2 CLR
05:19 5.8 °F 4.6 °F 1012.1 in Calm     92 % 0.0 in 0.0 W/m2 CLR
05:24 5.8 °F 4.6 °F 1012.1 in Calm     92 % 0.0 in 0.0 W/m2 CLR
05:29 5.8 °F 4.6 °F 1012.1 in Calm     92 % 0.0 in 0.0 W/m2 CLR
05:34 5.8 °F 4.7 °F 1012.4 in Calm     93 % 0.0 in 0.0 W/m2 CLR
05:39 5.8 °F 4.7 °F 1012.8 in Calm     93 % 0.0 in 0.0 W/m2 CLR
05:44 5.8 °F 4.8 °F 1012.8 in Calm     93 % 0.0 in 0.0 W/m2 CLR
05:49 5.8 °F 4.8 °F 1012.8 in Calm     93 % 0.0 in 0.0 W/m2 CLR
05:54 5.8 °F 4.8 °F 1012.8 in Calm     93 % 0.0 in 0.0 W/m2 CLR
05:59 5.9 °F 4.8 °F 1012.8 in Calm     93 % 0.0 in 0.0 W/m2 CLR
06:04 5.8 °F 4.8 °F 1012.8 in Calm   0.2 mph 93 % 0.0 in 0.0 W/m2 CLR
06:09 5.9 °F 4.8 °F 1012.8 in Calm     93 % 0.0 in 0.0 W/m2 CLR
06:14 5.9 °F 4.7 °F 1012.8 in Calm     92 % 0.0 in 0.0 W/m2 CLR
06:19 6.0 °F 4.8 °F 1012.8 in WSW 6.4 mph 6.4 mph 92 % 0.0 in 0.0 W/m2 CLR
06:24 6.2 °F 4.8 °F 1012.4 in West 9.3 mph 9.3 mph 91 % 0.0 in 0.0 W/m2 CLR
06:29 6.4 °F 4.9 °F 1012.4 in West 13.0 mph 13.0 mph 90 % 0.0 in 0.0 W/m2 CLR
06:34 6.4 °F 4.8 °F 1012.4 in West 11.1 mph 11.1 mph 89 % 0.0 in 0.0 W/m2 CLR
06:39 6.5 °F 4.7 °F 1012.8 in WNW 13.0 mph 13.0 mph 88 % 0.0 in 0.0 W/m2 CLR
06:44 6.5 °F 4.7 °F 1012.8 in WNW 6.4 mph 6.4 mph 88 % 0.0 in 0.0 W/m2 CLR
06:49 6.4 °F 4.6 °F 1012.8 in WNW 7.4 mph 7.4 mph 88 % 0.0 in 0.0 W/m2 OVC
06:54 6.3 °F 4.5 °F 1012.8 in Calm     88 % 0.0 in 0.0 W/m2 OVC
06:59 6.3 °F 4.3 °F 1012.8 in West 5.6 mph 5.6 mph 87 % 0.0 in 0.0 W/m2 OVC
07:04 6.3 °F 4.3 °F 1012.8 in West 5.6 mph 5.6 mph 87 % 0.0 in 5.0 W/m2 OVC
07:09 6.3 °F 4.1 °F 1013.1 in Calm     86 % 0.0 in 9.0 W/m2 BKN
07:14 6.3 °F 4.1 °F 1013.1 in Calm     86 % 0.0 in 12.0 W/m2 BKN
07:19 6.2 °F 4.1 °F 1013.1 in SW 5.6 mph 5.6 mph 86 % 0.0 in 16.0 W/m2 BKN
07:24 6.2 °F 4.0 °F 1013.1 in SW 5.6 mph 5.6 mph 86 % 0.0 in 21.0 W/m2 BKN
07:34 6.1 °F 3.9 °F 1013.4 in Calm     86 % 0.0 in 32.0 W/m2 BKN
07:39 6.1 °F 3.9 °F 1013.4 in Calm     86 % 0.0 in 39.0 W/m2 BKN
07:44 6.1 °F 3.9 °F 1013.4 in Calm     86 % 0.0 in 46.0 W/m2 SCT
07:49 6.2 °F 4.1 °F 1013.4 in Calm     86 % 0.0 in 51.0 W/m2 SCT
07:54 6.3 °F 4.1 °F 1013.8 in Calm     86 % 0.0 in 53.0 W/m2 SCT
07:57 6.3 °F 4.1 °F 1013.8 in Calm     86 % 0.0 in 56.0 W/m2 SCT
08:02 6.3 °F 4.1 °F 1013.8 in Calm     86 % 0.0 in 63.0 W/m2 SCT
08:07 6.3 °F 4.2 °F 1013.8 in Calm     86 % 0.0 in 63.0 W/m2 SCT
08:12 6.4 °F 4.1 °F 1013.8 in Calm     85 % 0.0 in 69.0 W/m2 SCT
08:17 6.4 °F 4.1 °F 1014.1 in Calm     85 % 0.0 in 72.0 W/m2 FEW
08:22 6.5 °F 4.2 °F 1014.1 in Calm     85 % 0.0 in 104.0 W/m2 FEW
08:27 6.6 °F 4.4 °F 1014.1 in Calm     86 % 0.0 in 127.0 W/m2 CLR
08:32 6.7 °F 4.5 °F 1014.1 in Calm     86 % 0.0 in 144.0 W/m2 CLR
08:37 6.8 °F 4.7 °F 1014.1 in Calm     86 % 0.0 in 158.0 W/m2 CLR
08:42 7.0 °F 4.8 °F 1014.1 in South 9.7 mph 9.7 mph 86 % 0.0 in 172.0 W/m2 CLR
08:52 7.3 °F 4.4 °F 1014.1 in SSE 6.4 mph 6.4 mph 82 % 0.0 in 204.0 W/m2 CLR
08:57 7.4 °F 4.4 °F 1014.1 in SSE 5.6 mph 5.6 mph 81 % 0.0 in 216.0 W/m2 CLR
09:02 7.6 °F 4.9 °F 1014.1 in SE 6.4 mph 6.4 mph 83 % 0.0 in 225.0 W/m2 CLR
09:07 7.7 °F 5.0 °F 1014.1 in SE 5.6 mph 5.6 mph 83 % 0.0 in 257.0 W/m2 CLR
09:12 7.9 °F 5.2 °F 1014.1 in Calm     83 % 0.0 in 269.0 W/m2 CLR
09:17 8.1 °F 5.2 °F 1014.1 in Calm     82 % 0.0 in 250.0 W/m2 CLR
09:22 8.2 °F 5.3 °F 1014.1 in Calm     82 % 0.0 in 276.0 W/m2 CLR
09:27 8.4 °F 5.5 °F 1014.1 in Calm     82 % 0.0 in 283.0 W/m2 CLR
09:32 8.6 °F 5.6 °F 1014.1 in Calm     81 % 0.0 in 323.0 W/m2 CLR
09:37 8.8 °F 5.3 °F 1014.1 in Calm     79 % 0.0 in 350.0 W/m2 CLR
09:42 9.1 °F 5.6 °F 1014.1 in Calm     79 % 0.0 in 374.0 W/m2 CLR
09:47 9.4 °F 5.7 °F 1014.1 in Calm     78 % 0.0 in 436.0 W/m2 CLR
09:52 9.8 °F 6.2 °F 1014.1 in Calm     78 % 0.0 in 473.0 W/m2 CLR
09:57 10.2 °F 6.3 °F 1014.1 in Calm     77 % 0.0 in 469.0 W/m2 CLR
10:03 10.5 °F 5.9 °F 1014.1 in Calm     73 % 0.0 in 512.0 W/m2 CLR
10:08 10.8 °F 5.5 °F 1014.1 in Calm     70 % 0.0 in 550.0 W/m2 CLR
10:13 11.1 °F 4.3 °F 1014.1 in West 5.6 mph 5.6 mph 63 % 0.0 in 578.0 W/m2 CLR
10:18 11.6 °F 4.3 °F 1014.1 in NNE 18.5 mph 18.5 mph 61 % 0.0 in 642.0 W/m2 CLR
10:23 11.7 °F 4.2 °F 1014.1 in NW 9.7 mph 9.7 mph 60 % 0.0 in 294.0 W/m2 CLR
10:28 11.8 °F 4.1 °F 1014.1 in NW 14.8 mph 14.8 mph 59 % 0.0 in 598.0 W/m2 CLR
10:33 11.8 °F 3.6 °F 1014.1 in West 14.8 mph 14.8 mph 57 % 0.0 in 636.0 W/m2 CLR
10:38 11.9 °F 3.1 °F 1014.1 in NNW 20.4 mph 20.4 mph 55 % 0.0 in 649.0 W/m2 CLR
10:43 12.1 °F 3.6 °F 1014.1 in North 11.3 mph 11.3 mph 56 % 0.0 in 633.0 W/m2 CLR
10:48 12.2 °F 3.9 °F 1014.1 in NNW 11.1 mph 11.1 mph 57 % 0.0 in 608.0 W/m2 CLR
10:53 12.1 °F 3.1 °F 1014.4 in WNW 11.1 mph 11.1 mph 54 % 0.0 in 656.0 W/m2 CLR
10:58 12.3 °F 3.7 °F 1014.4 in NNW 24.1 mph 24.1 mph 56 % 0.0 in 452.0 W/m2 CLR
11:03 11.9 °F 2.4 °F 1014.4 in North 25.9 mph 25.9 mph 52 % 0.0 in 387.0 W/m2 CLR
11:08 11.9 °F 2.1 °F 1014.4 in NW 24.1 mph 24.1 mph 51 % 0.0 in 439.0 W/m2 CLR
11:13 12.1 °F 2.6 °F 1014.4 in NW 20.4 mph 20.4 mph 52 % 0.0 in 633.0 W/m2 CLR
11:18 12.3 °F 2.4 °F 1014.4 in NNW 29.6 mph 29.6 mph 51 % 0.0 in 473.0 W/m2 CLR
11:23 12.2 °F 2.1 °F 1014.4 in NW 20.4 mph 20.4 mph 50 % 0.0 in 346.0 W/m2 CLR
11:28 12.1 °F 1.9 °F 1014.4 in WNW 18.5 mph 18.5 mph 50 % 0.0 in 288.0 W/m2 CLR
11:33 11.9 °F 1.8 °F 1014.4 in NNW 18.5 mph 18.5 mph 50 % 0.0 in 285.0 W/m2 CLR
11:38 11.9 °F 2.3 °F 1014.8 in NW 6.4 mph 6.4 mph 52 % 0.0 in 292.0 W/m2 CLR
11:43 11.9 °F 2.3 °F 1014.8 in NNW 3.7 mph   52 % 0.0 in 309.0 W/m2 CLR
11:48 11.8 °F 2.6 °F 1014.8 in Calm     53 % 0.0 in 239.0 W/m2 CLR
11:53 11.8 °F 2.8 °F 1014.8 in NNE 1.9 mph 1.9 mph 54 % 0.0 in 248.0 W/m2 CLR
11:58 11.8 °F 2.6 °F 1014.8 in NNW 14.8 mph 14.8 mph 53 % 0.0 in 271.0 W/m2 CLR
12:03 11.9 °F 3.2 °F 1014.8 in North 18.5 mph 18.5 mph 55 % 0.0 in 362.0 W/m2 CLR
12:08 12.0 °F 3.2 °F 1015.1 in NE 5.6 mph 5.6 mph 55 % 0.0 in 360.0 W/m2 CLR
12:13 12.1 °F 2.6 °F 1015.1 in NNE 14.8 mph 14.8 mph 52 % 0.0 in 436.0 W/m2 CLR
12:18 12.2 °F 2.9 °F 1014.8 in Calm     53 % 0.0 in 515.0 W/m2 CLR
12:23 12.4 °F 2.8 °F 1014.8 in ENE 4.8 mph 4.8 mph 52 % 0.0 in 455.0 W/m2 CLR
12:28 12.6 °F 3.6 °F 1014.8 in NE 7.4 mph 7.4 mph 54 % 0.0 in 608.0 W/m2 CLR
12:33 12.6 °F 3.8 °F 1014.8 in NE 18.5 mph 18.5 mph 55 % 0.0 in 564.0 W/m2 CLR
12:38 12.5 °F 3.4 °F 1014.8 in NE 14.8 mph 14.8 mph 54 % 0.0 in 587.0 W/m2 CLR
12:43 12.7 °F 3.8 °F 1014.8 in NE 14.8 mph 14.8 mph 55 % 0.0 in 543.0 W/m2 CLR
12:48 12.5 °F 3.2 °F 1014.8 in NE 3.2 mph 3.2 mph 53 % 0.0 in 413.0 W/m2 CLR
12:53 12.4 °F 3.3 °F 1015.1 in ENE 16.7 mph 16.7 mph 54 % 0.0 in 420.0 W/m2 CLR
12:58 12.3 °F 3.5 °F 1015.1 in NE 16.7 mph 16.7 mph 55 % 0.0 in 380.0 W/m2 CLR
13:03 12.1 °F 3.3 °F 1015.1 in ENE 5.6 mph 5.6 mph 55 % 0.0 in 397.0 W/m2 CLR
13:08 11.9 °F 2.9 °F 1015.1 in ENE 18.5 mph 18.5 mph 54 % 0.0 in 352.0 W/m2 CLR
13:13 11.8 °F 3.1 °F 1015.1 in ENE 14.8 mph 14.8 mph 55 % 0.0 in 332.0 W/m2 CLR
13:18 11.7 °F 3.2 °F 1015.5 in NNE 16.7 mph 16.7 mph 56 % 0.0 in 325.0 W/m2 CLR
13:23 11.7 °F 3.2 °F 1015.5 in NE 13.0 mph 13.0 mph 56 % 0.0 in 316.0 W/m2 CLR
13:28 11.7 °F 3.2 °F 1015.5 in NE 13.0 mph 13.0 mph 56 % 0.0 in 329.0 W/m2 CLR
13:33 11.7 °F 3.2 °F 1015.5 in North 13.0 mph 13.0 mph 56 % 0.0 in 364.0 W/m2 CLR
13:38 11.8 °F 3.3 °F 1015.5 in NE 3.7 mph 3.7 mph 56 % 0.0 in 401.0 W/m2 CLR
13:43 12.0 °F 3.7 °F 1015.5 in NE 19.3 mph 19.3 mph 57 % 0.0 in 462.0 W/m2 CLR
13:48 12.1 °F 3.8 °F 1015.5 in NE 22.2 mph 22.2 mph 57 % 0.0 in 536.0 W/m2 CLR
13:53 12.2 °F 3.9 °F 1015.1 in NE 14.8 mph 14.8 mph 57 % 0.0 in 541.0 W/m2 CLR
13:58 12.3 °F 3.8 °F 1015.1 in NE 5.6 mph 5.6 mph 56 % 0.0 in 647.0 W/m2 CLR
14:03 12.7 °F 3.9 °F 1015.1 in North 11.1 mph 11.1 mph 55 % 0.0 in 668.0 W/m2 CLR
14:08 12.9 °F 4.3 °F 1015.1 in NE 18.5 mph 18.5 mph 56 % 0.0 in 714.0 W/m2 CLR
14:13 13.1 °F 4.4 °F 1015.1 in NE 18.5 mph 18.5 mph 56 % 0.0 in 599.0 W/m2 CLR
14:18 13.1 °F 4.0 °F 1015.1 in NE 14.8 mph 14.8 mph 54 % 0.0 in 512.0 W/m2 CLR
14:23 12.9 °F 3.8 °F 1015.1 in ENE 16.7 mph 16.7 mph 54 % 0.0 in 522.0 W/m2 CLR
14:28 12.9 °F 4.1 °F 1015.1 in ENE 16.7 mph 16.7 mph 55 % 0.0 in 675.0 W/m2 CLR
14:33 12.9 °F 3.8 °F 1015.1 in NE 16.1 mph 16.1 mph 54 % 0.0 in 499.0 W/m2 CLR
14:38 12.9 °F 4.4 °F 1015.1 in NE 16.7 mph 16.7 mph 56 % 0.0 in 434.0 W/m2 CLR
14:43 12.9 °F 4.4 °F 1014.8 in ENE 19.3 mph 19.3 mph 56 % 0.0 in 468.0 W/m2 CLR
14:48 13.0 °F 4.4 °F 1014.8 in ENE 18.5 mph 18.5 mph 56 % 0.0 in 422.0 W/m2 CLR
14:50 13.0 °F 4.4 °F 1014.8 in NE 22.2 mph 22.2 mph 56 % 0.0 in 719.0 W/m2 CLR
14:55 12.9 °F 4.4 °F 1014.8 in NE 17.7 mph 17.7 mph 56 % 0.0 in 684.0 W/m2 CLR
15:00 13.2 °F 4.8 °F 1014.8 in NE 18.5 mph 18.5 mph 57 % 0.0 in 877.0 W/m2 CLR
15:05 13.3 °F 4.7 °F 1014.8 in ENE 31.5 mph 31.5 mph 56 % 0.0 in 446.0 W/m2 CLR
15:10 13.1 °F 4.8 °F 1014.8 in ENE 25.9 mph 25.9 mph 57 % 0.0 in 429.0 W/m2 CLR
15:15 12.9 °F 4.9 °F 1014.8 in NE 20.9 mph 20.9 mph 58 % 0.0 in 469.0 W/m2 CLR
15:20 12.9 °F 5.1 °F 1014.8 in ENE 25.9 mph 25.9 mph 59 % 0.0 in 348.0 W/m2 CLR
15:25 12.7 °F 5.1 °F 1014.8 in East 20.4 mph 20.4 mph 60 % 0.0 in 232.0 W/m2 CLR
15:30 12.4 °F 5.1 °F 1014.8 in East 13.0 mph 13.0 mph 61 % 0.0 in 225.0 W/m2 CLR
15:35 12.3 °F 5.3 °F 1014.8 in ESE 16.7 mph 16.7 mph 62 % 0.0 in 297.0 W/m2 CLR
15:40 12.5 °F 5.4 °F 1014.4 in ESE 6.4 mph 6.4 mph 62 % 0.0 in 671.0 W/m2 CLR
15:41 12.5 °F 5.7 °F 1014.4 in East 9.3 mph 9.3 mph 63 % 0.0 in 671.0 W/m2 CLR
15:46 12.8 °F 5.4 °F 1014.4 in ESE 11.1 mph 11.1 mph 61 % 0.0 in 526.0 W/m2 CLR
15:51 13.1 °F 5.2 °F 1014.4 in ENE 18.5 mph 18.5 mph 59 % 0.0 in 441.0 W/m2 CLR
15:56 13.2 °F 4.9 °F 1014.4 in SE 13.0 mph 13.0 mph 57 % 0.0 in 589.0 W/m2 CLR
16:01 13.3 °F 5.0 °F 1014.4 in ESE 13.0 mph 13.0 mph 57 % 0.0 in 587.0 W/m2 CLR
16:06 13.2 °F 4.4 °F 1014.1 in ESE 14.8 mph 14.8 mph 55 % 0.0 in 554.0 W/m2 CLR
16:11 13.2 °F 4.4 °F 1014.1 in East 9.3 mph 9.3 mph 55 % 0.0 in 494.0 W/m2 CLR
16:16 13.0 °F 4.2 °F 1014.1 in East 14.8 mph 14.8 mph 55 % 0.0 in 229.0 W/m2 CLR
16:21 12.9 °F 3.8 °F 1014.1 in East 16.7 mph 16.7 mph 54 % 0.0 in 237.0 W/m2 CLR
16:26 12.8 °F 4.0 °F 1014.1 in ESE 18.5 mph 18.5 mph 55 % 0.0 in 202.0 W/m2 CLR
16:31 12.8 °F 3.9 °F 1014.1 in East 9.3 mph 9.3 mph 55 % 0.0 in 236.0 W/m2 CLR
16:36 12.8 °F 4.0 °F 1014.1 in ESE 9.7 mph 9.7 mph 55 % 0.0 in 371.0 W/m2 CLR
16:41 13.2 °F 4.6 °F 1014.4 in ESE 13.0 mph 13.0 mph 56 % 0.0 in 468.0 W/m2 CLR
16:46 13.2 °F 4.1 °F 1014.4 in East 14.8 mph 14.8 mph 54 % 0.0 in 404.0 W/m2 CLR
16:51 13.2 °F 4.1 °F 1014.4 in ESE 16.7 mph 16.7 mph 54 % 0.0 in 380.0 W/m2 CLR
16:56 13.1 °F 4.0 °F 1014.4 in ENE 13.0 mph 13.0 mph 54 % 0.0 in 193.0 W/m2 CLR
17:01 13.0 °F 3.9 °F 1014.4 in East 11.3 mph 11.3 mph 54 % 0.0 in 200.0 W/m2 CLR
17:06 12.9 °F 4.1 °F 1014.4 in East 9.3 mph 9.3 mph 55 % 0.0 in 183.0 W/m2 CLR
17:11 12.9 °F 3.8 °F 1014.4 in East 14.8 mph 14.8 mph 54 % 0.0 in 197.0 W/m2 CLR
17:16 12.9 °F 4.3 °F 1014.4 in East 13.0 mph 13.0 mph 56 % 0.0 in 141.0 W/m2 CLR
17:21 12.9 °F 4.3 °F 1014.4 in ESE 9.3 mph 9.3 mph 56 % 0.0 in 116.0 W/m2 CLR
17:26 12.9 °F 4.6 °F 1014.4 in ESE 13.0 mph 13.0 mph 57 % 0.0 in 95.0 W/m2 CLR
17:31 12.8 °F 5.0 °F 1014.8 in ESE 7.4 mph 7.4 mph 59 % 0.0 in 97.0 W/m2 CLR
17:36 12.8 °F 5.0 °F 1014.4 in ESE 18.5 mph 18.5 mph 59 % 0.0 in 100.0 W/m2 CLR
17:41 12.7 °F 5.2 °F 1014.4 in ESE 12.9 mph 12.9 mph 60 % 0.0 in 84.0 W/m2 CLR
17:46 12.7 °F 5.2 °F 1014.8 in ESE 11.1 mph 11.1 mph 60 % 0.0 in 76.0 W/m2 CLR
17:51 12.7 °F 5.1 °F 1014.8 in ESE 5.6 mph 5.6 mph 60 % 0.0 in 62.0 W/m2 FEW
17:56 12.6 °F 5.2 °F 1014.8 in ESE 11.1 mph 11.1 mph 61 % 0.0 in 67.0 W/m2 FEW
18:01 12.5 °F 5.2 °F 1014.8 in SE 9.3 mph 9.3 mph 61 % 0.0 in 70.0 W/m2 FEW
18:06 12.5 °F 5.2 °F 1014.8 in East 16.7 mph 16.7 mph 61 % 0.0 in 62.0 W/m2 FEW
18:11 12.4 °F 5.3 °F 1014.8 in East 9.3 mph 9.3 mph 62 % 0.0 in 40.0 W/m2 SCT
18:16 12.4 °F 5.3 °F 1014.8 in ESE 6.4 mph 6.4 mph 62 % 0.0 in 47.0 W/m2 SCT
18:21 12.3 °F 5.3 °F 1014.8 in East 11.3 mph 11.3 mph 62 % 0.0 in 40.0 W/m2 BKN
18:26 12.3 °F 5.4 °F 1014.8 in East 7.4 mph 7.4 mph 63 % 0.0 in 37.0 W/m2 BKN
18:31 12.2 °F 5.4 °F 1014.8 in East 5.6 mph 5.6 mph 63 % 0.0 in 30.0 W/m2 BKN
18:36 12.2 °F 5.3 °F 1015.1 in East 5.6 mph 5.6 mph 63 % 0.0 in 30.0 W/m2 BKN
18:41 12.2 °F 5.3 °F 1015.1 in East 11.1 mph 11.1 mph 63 % 0.0 in 25.0 W/m2 BKN
18:46 12.2 °F 5.6 °F 1015.1 in ESE 3.2 mph 3.2 mph 64 % 0.0 in 18.0 W/m2 BKN
18:51 12.1 °F 5.5 °F 1015.1 in ESE 5.6 mph 5.6 mph 64 % 0.0 in 12.0 W/m2 BKN
18:56 12.1 °F 5.4 °F 1015.1 in Calm     64 % 0.0 in 9.0 W/m2 BKN
19:01 12.1 °F 5.4 °F 1015.1 in Calm     64 % 0.0 in 7.0 W/m2 BKN
19:06 11.9 °F 5.6 °F 1015.1 in East 5.6 mph 5.6 mph 65 % 0.0 in 5.0 W/m2 OVC
19:11 11.9 °F 5.5 °F 1015.1 in Calm     65 % 0.0 in 0.0 W/m2 OVC
19:16 11.8 °F 5.7 °F 1015.1 in Calm     66 % 0.0 in 0.0 W/m2 OVC
19:21 11.7 °F 5.8 °F 1015.1 in Calm     67 % 0.0 in 0.0 W/m2 OVC
19:26 11.6 °F 5.7 °F 1015.5 in Calm     67 % 0.0 in 0.0 W/m2 OVC
19:31 11.4 °F 5.7 °F 1015.5 in NE 13.0 mph 13.0 mph 68 % 0.0 in 0.0 W/m2 CLR
19:36 11.0 °F 5.7 °F 1015.5 in NE 6.4 mph 6.4 mph 70 % 0.0 in 0.0 W/m2 CLR
19:41 10.4 °F 5.8 °F 1015.8 in North 13.0 mph 13.0 mph 73 % 0.0 in 0.0 W/m2 CLR
19:46 9.9 °F 5.7 °F 1015.8 in North 13.0 mph 13.0 mph 75 % 0.0 in 0.0 W/m2 CLR
19:51 9.6 °F 5.6 °F 1015.8 in NNE 9.3 mph 9.3 mph 76 % 0.0 in 0.0 W/m2 CLR
19:53 9.6 °F 5.6 °F 1015.8 in NNE 9.7 mph 9.7 mph 76 % 0.0 in 0.0 W/m2 CLR
19:58 9.3 °F 5.5 °F 1016.1 in NNE 7.4 mph   77 % 0.0 in 0.0 W/m2 CLR
20:03 9.1 °F 5.5 °F 1016.1 in Calm     78 % 0.0 in 0.0 W/m2 CLR
20:08 9.0 °F 5.4 °F 1016.1 in Calm     78 % 0.0 in 0.0 W/m2 CLR
20:13 8.9 °F 5.3 °F 1016.1 in Calm     78 % 0.0 in 0.0 W/m2 CLR
20:18 8.8 °F 5.3 °F 1016.5 in Calm     79 % 0.0 in 0.0 W/m2 CLR
20:23 8.7 °F 5.3 °F 1016.5 in Calm     79 % 0.0 in 0.0 W/m2 CLR
20:28 8.7 °F 5.4 °F 1016.1 in Calm     80 % 0.0 in 0.0 W/m2 CLR
20:33 8.6 °F 5.3 °F 1016.5 in Calm     80 % 0.0 in 0.0 W/m2 CLR
20:38 8.4 °F 5.1 °F 1016.5 in Calm     80 % 0.0 in 0.0 W/m2 CLR
20:43 8.3 °F 5.3 °F 1016.5 in Calm     81 % 0.0 in 0.0 W/m2 CLR
20:48 8.3 °F 5.2 °F 1016.5 in Calm     81 % 0.0 in 0.0 W/m2 CLR
20:53 8.2 °F 5.2 °F 1016.5 in Calm     81 % 0.0 in 0.0 W/m2 CLR
20:58 8.2 °F 5.1 °F 1016.5 in Calm     81 % 0.0 in 0.0 W/m2 CLR
21:03 8.0 °F 5.1 °F 1016.5 in Calm     82 % 0.0 in 0.0 W/m2 CLR
21:08 7.9 °F 5.0 °F 1016.5 in Calm     82 % 0.0 in 0.0 W/m2 CLR
21:13 7.7 °F 5.0 °F 1016.8 in Calm     83 % 0.0 in 0.0 W/m2 CLR
21:18 7.7 °F 4.9 °F 1016.8 in Calm     83 % 0.0 in 0.0 W/m2 CLR
21:23 7.7 °F 4.9 °F 1016.8 in Calm     83 % 0.0 in 0.0 W/m2 CLR
21:28 7.6 °F 5.1 °F 1017.2 in Calm     84 % 0.0 in 0.0 W/m2 CLR
21:33 7.6 °F 5.0 °F 1017.5 in Calm     84 % 0.0 in 0.0 W/m2 CLR
21:38 7.4 °F 4.9 °F 1017.5 in Calm     84 % 0.0 in 0.0 W/m2 CLR
21:43 7.4 °F 4.8 °F 1017.5 in Calm     84 % 0.0 in 0.0 W/m2 CLR
21:48 7.3 °F 5.0 °F 1017.5 in Calm     85 % 0.0 in 0.0 W/m2 CLR
21:53 7.3 °F 5.0 °F 1017.5 in Calm     85 % 0.0 in 0.0 W/m2 CLR
21:58 7.4 °F 5.1 °F 1017.5 in Calm     85 % 0.0 in 0.0 W/m2 CLR
22:03 7.4 °F 5.1 °F 1017.5 in Calm     85 % 0.0 in 0.0 W/m2 CLR
22:08 7.4 °F 5.1 °F 1017.5 in Calm     85 % 0.0 in 0.0 W/m2 CLR
22:13 7.4 °F 5.1 °F 1017.5 in Calm     85 % 0.0 in 0.0 W/m2 CLR
22:18 7.4 °F 5.1 °F 1017.5 in Calm     85 % 0.0 in 0.0 W/m2 CLR
22:23 7.4 °F 5.1 °F 1017.5 in Calm     85 % 0.0 in 0.0 W/m2 CLR
22:28 7.3 °F 5.2 °F 1017.5 in Calm     86 % 0.0 in 0.0 W/m2 CLR
22:33 7.4 °F 5.2 °F 1017.5 in Calm     86 % 0.0 in 0.0 W/m2 CLR
22:38 7.4 °F 5.3 °F 1017.5 in Calm     86 % 0.0 in 0.0 W/m2 CLR
22:43 7.4 °F 5.3 °F 1017.5 in Calm     86 % 0.0 in 0.0 W/m2 CLR
22:48 7.4 °F 5.3 °F 1017.5 in Calm     86 % 0.0 in 0.0 W/m2 CLR
22:53 7.4 °F 5.3 °F 1017.5 in Calm     86 % 0.0 in 0.0 W/m2 CLR
22:58 7.4 °F 5.3 °F 1017.5 in Calm     86 % 0.0 in 0.0 W/m2 CLR
23:03 7.4 °F 5.3 °F 1017.5 in Calm     86 % 0.0 in 0.0 W/m2 CLR
23:08 7.4 °F 5.3 °F 1017.5 in Calm     86 % 0.0 in 0.0 W/m2 CLR
23:13 7.4 °F 5.2 °F 1017.5 in Calm     86 % 0.0 in 0.0 W/m2 CLR
23:18 7.4 °F 5.2 °F 1017.5 in Calm     86 % 0.0 in 0.0 W/m2 CLR
23:23 7.3 °F 5.2 °F 1017.8 in Calm     86 % 0.0 in 0.0 W/m2 CLR
23:28 7.4 °F 5.2 °F 1017.8 in Calm     86 % 0.0 in 0.0 W/m2 CLR
23:33 7.6 °F 5.4 °F 1017.8 in Calm     86 % 0.0 in 0.0 W/m2 CLR
23:38 7.7 °F 5.3 °F 1017.8 in Calm     85 % 0.0 in 0.0 W/m2 CLR
23:43 7.7 °F 5.3 °F 1017.8 in Calm     85 % 0.0 in 0.0 W/m2 CLR
23:48 7.7 °F 5.3 °F 1017.8 in Calm     85 % 0.0 in 0.0 W/m2 CLR
23:49 7.7 °F 5.3 °F 1017.8 in Calm     85 % 0.0 in 0.0 W/m2 CLR
23:54 7.6 °F 5.2 °F 1017.8 in Calm     85 % 0.0 in 0.0 W/m2 CLR
23:59 7.6 °F 5.2 °F 1017.8 in Calm     85 % 0.0 in 0.0 W/m2 CLR
Lo Temps de Massalio
Compliments of Weather Underground - 1.25 mb